TimeCST,TemperatureF,Dew PointF,Humidity,Sea Level PressureIn,VisibilityMPH,Wind Direction,Wind SpeedMPH,Gust SpeedMPH,PrecipitationIn,Events,Conditions,WindDirDegrees,DateUTC
12:15 AM,26.6,19.4,74,30.12,10.0,Calm,Calm,-,N/A,,Clear,0,2013-03-04 06:15:00
12:35 AM,26.6,19.4,74,30.13,10.0,Calm,Calm,-,N/A,,Clear,0,2013-03-04 06:35:00
12:55 AM,26.6,21.2,80,30.13,10.0,Calm,Calm,-,N/A,,Scattered Clouds,0,2013-03-04 06:55:00
1:15 AM,26.6,21.2,80,30.12,10.0,Calm,Calm,-,N/A,,Overcast,0,2013-03-04 07:15:00
1:55 AM,28.4,23.0,80,30.14,10.0,Calm,Calm,-,N/A,,Overcast,0,2013-03-04 07:55:00
2:15 AM,30.2,24.8,80,30.14,10.0,Calm,Calm,-,N/A,,Overcast,0,2013-03-04 08:15:00
2:35 AM,30.2,23.0,75,30.13,10.0,Calm,Calm,-,N/A,,Overcast,0,2013-03-04 08:35:00
2:55 AM,30.2,24.8,80,30.13,10.0,Calm,Calm,-,N/A,,Scattered Clouds,0,2013-03-04 08:55:00
3:15 AM,28.4,23.0,80,30.14,10.0,Calm,Calm,-,N/A,,Clear,0,2013-03-04 09:15:00
3:35 AM,28.4,21.2,74,30.14,10.0,Calm,Calm,-,N/A,,Clear,0,2013-03-04 09:35:00
3:55 AM,26.6,21.2,80,30.15,10.0,Calm,Calm,-,N/A,,Partly Cloudy,0,2013-03-04 09:55:00
4:15 AM,26.6,21.2,80,30.15,10.0,West,3.5,-,N/A,,Partly Cloudy,260,2013-03-04 10:15:00
4:35 AM,26.6,21.2,80,30.15,10.0,Calm,Calm,-,N/A,,Clear,0,2013-03-04 10:35:00
4:55 AM,26.6,21.2,80,30.15,10.0,Calm,Calm,-,N/A,,Clear,0,2013-03-04 10:55:00
5:15 AM,26.6,21.2,80,30.16,10.0,Calm,Calm,-,N/A,,Clear,0,2013-03-04 11:15:00
5:35 AM,26.6,23.0,86,30.16,10.0,Calm,Calm,-,N/A,,Clear,0,2013-03-04 11:35:00
5:55 AM,26.6,21.2,80,30.16,10.0,Calm,Calm,-,N/A,,Clear,0,2013-03-04 11:55:00
6:15 AM,24.8,21.2,86,30.17,10.0,Calm,Calm,-,N/A,,Clear,0,2013-03-04 12:15:00
6:35 AM,26.6,21.2,80,30.17,10.0,Calm,Calm,-,N/A,,Clear,0,2013-03-04 12:35:00
6:55 AM,28.4,24.8,86,30.18,10.0,Calm,Calm,-,N/A,,Clear,0,2013-03-04 12:55:00
7:15 AM,30.2,24.8,80,30.18,10.0,Calm,Calm,-,N/A,,Clear,0,2013-03-04 13:15:00
7:35 AM,33.8,26.6,75,30.18,10.0,ENE,3.5,-,N/A,,Clear,60,2013-03-04 13:35:00
7:55 AM,33.8,24.8,70,30.19,10.0,Calm,Calm,-,N/A,,Clear,0,2013-03-04 13:55:00
8:15 AM,35.6,24.8,65,30.18,10.0,Calm,Calm,-,N/A,,Clear,0,2013-03-04 14:15:00
8:35 AM,35.6,24.8,65,30.19,10.0,Calm,Calm,-,N/A,,Clear,0,2013-03-04 14:35:00
8:55 AM,37.4,23.0,56,30.20,10.0,Calm,Calm,-,N/A,,Clear,0,2013-03-04 14:55:00
9:15 AM,41.0,23.0,49,30.18,10.0,NE,3.5,-,N/A,,Clear,40,2013-03-04 15:15:00
9:35 AM,42.8,23.0,46,30.18,10.0,Calm,Calm,-,N/A,,Clear,0,2013-03-04 15:35:00
9:55 AM,44.6,21.2,39,30.17,9.0,Calm,Calm,-,N/A,,Clear,0,2013-03-04 15:55:00
10:15 AM,44.6,19.4,37,30.17,10.0,East,3.5,-,N/A,,Clear,80,2013-03-04 16:15:00
10:35 AM,46.4,21.2,37,30.17,10.0,SE,4.6,-,N/A,,Clear,130,2013-03-04 16:35:00
10:55 AM,44.6,19.4,37,30.16,10.0,SE,3.5,-,N/A,,Clear,140,2013-03-04 16:55:00
11:15 AM,46.4,21.2,37,30.15,10.0,SE,3.5,-,N/A,,Clear,140,2013-03-04 17:15:00
11:55 AM,51.8,23.0,33,30.12,10.0,SE,8.1,-,N/A,,Clear,140,2013-03-04 17:55:00
12:15 PM,53.6,21.2,28,30.11,10.0,SE,9.2,-,N/A,,Clear,140,2013-03-04 18:15:00
12:55 PM,55.4,24.8,31,30.08,10.0,SE,11.5,-,N/A,,Clear,130,2013-03-04 18:55:00
1:15 PM,57.2,24.8,29,30.06,10.0,South,5.8,-,N/A,,Clear,170,2013-03-04 19:15:00
1:35 PM,57.2,24.8,29,30.04,10.0,South,9.2,16.1,N/A,,Clear,170,2013-03-04 19:35:00
1:55 PM,60.8,26.6,27,30.03,10.0,SSE,12.7,-,N/A,,Clear,160,2013-03-04 19:55:00
2:15 PM,57.2,24.8,29,30.03,10.0,South,8.1,-,N/A,,Clear,170,2013-03-04 20:15:00
2:35 PM,57.2,24.8,29,30.02,10.0,SE,9.2,-,N/A,,Clear,140,2013-03-04 20:35:00
2:55 PM,59.0,26.6,29,30.01,10.0,South,9.2,-,N/A,,Clear,170,2013-03-04 20:55:00
3:15 PM,60.8,26.6,27,30.00,10.0,SSE,5.8,-,N/A,,Clear,160,2013-03-04 21:15:00
3:35 PM,60.8,26.6,27,30.00,10.0,SSE,9.2,-,N/A,,Clear,150,2013-03-04 21:35:00
3:55 PM,60.8,26.6,27,29.99,10.0,SSE,6.9,-,N/A,,Clear,160,2013-03-04 21:55:00
4:15 PM,60.8,26.6,27,29.99,10.0,SSE,8.1,-,N/A,,Clear,160,2013-03-04 22:15:00
4:35 PM,60.8,26.6,27,29.99,10.0,SSE,6.9,-,N/A,,Clear,160,2013-03-04 22:35:00
4:55 PM,59.0,26.6,29,29.98,10.0,South,4.6,-,N/A,,Clear,180,2013-03-04 22:55:00
5:15 PM,57.2,26.6,31,29.98,10.0,SE,5.8,-,N/A,,Clear,140,2013-03-04 23:15:00
5:35 PM,57.2,28.4,33,29.96,10.0,SSE,9.2,-,N/A,,Partly Cloudy,150,2013-03-04 23:35:00
5:55 PM,57.2,28.4,33,29.96,10.0,South,4.6,-,N/A,,Clear,170,2013-03-04 23:55:00
6:15 PM,57.2,28.4,33,29.98,10.0,South,5.8,17.3,N/A,,Clear,170,2013-03-05 00:15:00
6:35 PM,57.2,28.4,33,29.98,10.0,SSE,8.1,-,N/A,,Clear,150,2013-03-05 00:35:00
6:55 PM,57.2,28.4,33,29.97,10.0,SSE,8.1,-,N/A,,Clear,160,2013-03-05 00:55:00
7:15 PM,57.2,28.4,33,29.98,10.0,South,8.1,16.1,N/A,,Clear,170,2013-03-05 01:15:00
7:35 PM,55.4,28.4,36,29.97,10.0,SSE,10.4,18.4,N/A,,Clear,160,2013-03-05 01:35:00
7:55 PM,55.4,28.4,36,29.97,10.0,South,8.1,18.4,N/A,,Clear,170,2013-03-05 01:55:00
8:35 PM,55.4,28.4,36,29.98,10.0,South,6.9,-,N/A,,Clear,190,2013-03-05 02:35:00
8:55 PM,55.4,28.4,36,29.98,10.0,SSW,5.8,-,N/A,,Clear,200,2013-03-05 02:55:00
9:15 PM,55.4,28.4,36,29.99,10.0,SW,4.6,-,N/A,,Clear,220,2013-03-05 03:15:00
9:35 PM,55.4,30.2,38,30.00,10.0,SSW,5.8,-,N/A,,Clear,200,2013-03-05 03:35:00
9:55 PM,55.4,30.2,38,30.00,10.0,SSW,6.9,-,N/A,,Mostly Cloudy,200,2013-03-05 03:55:00
10:15 PM,55.4,32.0,41,30.01,10.0,SW,4.6,-,N/A,,Overcast,220,2013-03-05 04:15:00
10:35 PM,55.4,33.8,44,30.02,10.0,Calm,Calm,-,N/A,,Mostly Cloudy,0,2013-03-05 04:35:00
10:55 PM,55.4,35.6,47,30.01,10.0,SSW,5.8,-,N/A,,Overcast,200,2013-03-05 04:55:00
11:15 PM,55.4,35.6,47,30.01,10.0,South,5.8,-,N/A,,Overcast,190,2013-03-05 05:15:00
11:35 PM,55.4,37.4,51,30.00,10.0,SSW,5.8,-,N/A,,Overcast,200,2013-03-05 05:35:00
11:55 PM,55.4,37.4,51,30.00,10.0,SSW,6.9,-,N/A,,Overcast,200,2013-03-05 05:55:00